User: anonymous   Login
Location: Gipe Farm
(40.9466°N, 95.5370°W)
Time: 15:15:28
(UTC-05:00)
Language:

Cosmos 1842 - Orbit

View from above orbital plane
View from above orbital plane
View from above satellite
View from above satellite

Ground track
Ground track

The orbit data is extracted from the following two-line orbital elements,

1 17911U 87038A   16150.64384184  .00001484  00000-0  87790-4 0  9998
2 17911  82.5221 208.4416 0013710 122.2810 237.9750 15.10635300583894
Epoch (UTC): 29 May 2016 15:27:07
Eccentricity: 0.0013710
inclination: 82.5221°
perigee height: 525 km
apogee height: 544 km
right ascension of ascending node: 208.4416°
argument of perigee: 122.2810°
revolutions per day: 15.10635300
mean anomaly at epoch: 237.9750°
orbit number at epoch: 58389

The dashed part of the orbit path shows where the satellite is in the earth's shadow,  

DLR